2023/10/24 00:00:00, 1.6,10.3
2023/10/24 00:10:00, 1.6,10.4
2023/10/24 00:20:00, 1.7,10.2
2023/10/24 00:30:00, 1.7,10.1
2023/10/24 00:40:00, 1.7,10.1
2023/10/24 00:50:00, 1.8,10.1
2023/10/24 01:00:00, 1.9,10.1
2023/10/24 01:10:00, 1.9,10.1
2023/10/24 01:20:00, 1.8, 9.6
2023/10/24 01:30:00, 1.9,10.0
2023/10/24 01:40:00, 1.8,10.1
2023/10/24 01:50:00, 1.9,10.1
2023/10/24 02:00:00, 1.9,10.0
2023/10/24 02:10:00, 1.8, 9.9
2023/10/24 02:20:00, 1.8, 9.7
2023/10/24 02:30:00, 1.8, 9.6
2023/10/24 02:40:00, 1.8, 9.8
2023/10/24 02:50:00, 1.9, 9.4
2023/10/24 03:00:00,26.2, 9.4
2023/10/24 03:10:00, 2.1, 9.5
2023/10/24 03:20:00,26.2, 9.7
2023/10/24 03:30:00, 2.1, 9.5
2023/10/24 03:40:00, 2.1, 9.4
2023/10/24 03:50:00, 2.0, 9.5
2023/10/24 04:00:00, 2.2, 9.4
2023/10/24 04:10:00,---, 9.4
2023/10/24 04:20:00,26.4, 9.4
2023/10/24 04:30:00, 2.2, 9.4
2023/10/24 04:40:00,---, 9.5
2023/10/24 04:50:00, 2.2, 9.3
2023/10/24 05:00:00, 2.1, 9.3
2023/10/24 05:10:00, 2.1, 9.1
2023/10/24 05:20:00,---, 8.8
2023/10/24 05:30:00, 2.2, 9.1
2023/10/24 05:40:00,42.4, 8.9
2023/10/24 05:50:00,---, 9.1
2023/10/24 06:00:00, 2.1, 9.0
2023/10/24 06:10:00, 2.2, 9.2
2023/10/24 06:20:00, 2.1, 9.4
2023/10/24 06:30:00, 1.9, 9.6
2023/10/24 06:40:00, 2.0, 9.5
2023/10/24 06:50:00, 1.8, 9.4
2023/10/24 07:00:00, 1.9, 9.4
2023/10/24 07:10:00, 1.5, 9.3
2023/10/24 07:20:00, 1.8, 9.4
2023/10/24 07:30:00,---,11.0
2023/10/24 07:40:00,---,11.8
2023/10/24 07:50:00, 0.0,12.9
2023/10/24 08:00:00, 0.0,13.3
2023/10/24 08:10:00, 0.0,14.0
2023/10/24 08:20:00,---,14.3
2023/10/24 08:30:00,---,15.0
2023/10/24 08:40:00,---,15.6
2023/10/24 08:50:00,---,17.3
2023/10/24 09:00:00, 0.0,18.9
2023/10/24 09:10:00,---,21.0
2023/10/24 09:20:00,---,21.6
2023/10/24 09:30:00,---,21.4
2023/10/24 09:40:00, 0.0,21.8
2023/10/24 09:50:00, 0.0,19.0
2023/10/24 10:00:00,---,21.7
2023/10/24 10:10:00,---,24.3
2023/10/24 10:20:00,---,23.4
2023/10/24 10:30:00,---,22.1
2023/10/24 10:40:00,---,23.7
2023/10/24 10:50:00, 0.0,25.4
2023/10/24 11:00:00,---,24.7
2023/10/24 11:10:00,---,25.1
2023/10/24 11:20:00, 0.0,23.3
2023/10/24 11:30:00,---,23.5
2023/10/24 11:40:00, 0.0,20.9
2023/10/24 11:50:00,---,22.0
2023/10/24 12:00:00,---,21.5
2023/10/24 12:10:00, 0.0,24.5
2023/10/24 12:20:00, 0.0,24.8
2023/10/24 12:30:00, 0.0,22.5
2023/10/24 12:40:00, 0.0,25.6
2023/10/24 12:50:00, 0.0,26.5
2023/10/24 13:00:00, 0.0,26.2
2023/10/24 13:10:00, 0.0,25.2
2023/10/24 13:20:00, 0.0,23.2
2023/10/24 13:30:00, 0.0,21.6
2023/10/24 13:40:00, 0.0,21.5
2023/10/24 13:50:00, 0.0,20.7
2023/10/24 14:00:00, 0.0,20.7
2023/10/24 14:10:00, 0.0,20.8
2023/10/24 14:20:00, 0.0,20.1
2023/10/24 14:30:00, 0.0,22.4
2023/10/24 14:40:00, 0.0,20.8
2023/10/24 14:50:00, 0.2,20.9
2023/10/24 15:00:00, 0.1,20.7
2023/10/24 15:10:00, 0.1,20.0
2023/10/24 15:20:00, 0.1,19.7
2023/10/24 15:30:00, 0.1,19.9
2023/10/24 15:40:00, 0.1,19.7
2023/10/24 15:50:00, 0.2,19.4
2023/10/24 16:00:00, 0.3,17.4
2023/10/24 16:10:00, 0.3,16.4
2023/10/24 16:20:00, 0.4,16.0
2023/10/24 16:30:00, 0.5,16.0
2023/10/24 16:40:00, 0.4,15.6
2023/10/24 16:50:00, 0.4,15.4
2023/10/24 17:00:00, 0.6,15.0
2023/10/24 17:10:00, 0.6,14.8
2023/10/24 17:20:00, 0.6,14.3
2023/10/24 17:30:00, 0.6,14.2
2023/10/24 17:40:00, 0.7,13.8
2023/10/24 17:50:00, 0.7,13.8
2023/10/24 18:00:00, 0.8,13.7
2023/10/24 18:10:00, 0.7,13.4
2023/10/24 18:20:00, 0.7,13.3
2023/10/24 18:30:00, 0.7,12.9
2023/10/24 18:40:00, 0.8,13.2
2023/10/24 18:50:00, 0.9,13.2
2023/10/24 19:00:00, 0.9,13.2
2023/10/24 19:10:00, 0.8,13.1
2023/10/24 19:20:00, 0.8,12.9
2023/10/24 19:30:00, 0.8,12.7
2023/10/24 19:40:00, 0.8,12.7
2023/10/24 19:50:00, 0.7,12.6
2023/10/24 20:00:00, 0.8,12.5
2023/10/24 20:10:00, 0.8,12.2
2023/10/24 20:20:00, 0.8,12.2
2023/10/24 20:30:00, 0.9,12.1
2023/10/24 20:40:00, 0.9,12.3
2023/10/24 20:50:00, 0.8,12.5
2023/10/24 21:00:00, 0.7,12.2
2023/10/24 21:10:00, 0.8,12.2
2023/10/24 21:20:00, 0.8,12.2
2023/10/24 21:30:00, 0.7,12.2
2023/10/24 21:40:00, 0.7,12.0
2023/10/24 21:50:00, 0.7,11.8
2023/10/24 22:00:00, 0.8,11.6
2023/10/24 22:10:00, 0.8,11.4
2023/10/24 22:20:00, 0.8,11.1
2023/10/24 22:30:00, 0.8,11.3
2023/10/24 22:40:00, 0.9,10.9
2023/10/24 22:50:00, 0.9,10.8
2023/10/24 23:00:00, 1.0,11.3
2023/10/24 23:10:00, 1.0,11.4
2023/10/24 23:20:00, 1.0,11.3
2023/10/24 23:30:00, 1.0,11.3
2023/10/24 23:40:00, 1.0,11.5
2023/10/24 23:50:00, 0.9,11.3
